| time (UTC) | temp C | wind direction | speed KPH | gust KPH | rain 1hr cm | rain 24hr cm | rain mn cm | humidity % | barometer mb |
| 20260506014626 | 26 | 139 | 4.8 | 6.4 | 0.00 | 0.00 | 0.00 | 77 | 1004.4 |
| 20260506013627 | 26 | 148 | 3.2 | 11.3 | 0.00 | 0.00 | 0.00 | 76 | 1004.5 |
| 20260506012626 | 26 | 138 | 3.2 | 14.5 | 0.00 | 0.00 | 0.00 | 75 | 1004.4 |
| 20260506010626 | 27 | 146 | 4.8 | 11.3 | 0.00 | 0.00 | 0.00 | 74 | 1004.4 |
| 20260506004626 | 27 | 157 | 4.8 | 12.9 | 0.00 | 0.00 | 0.00 | 73 | 1004.4 |
| 20260506003626 | 27 | 167 | 8.0 | 12.9 | 0.00 | 0.00 | 0.00 | 72 | 1004.4 |
| 20260506002626 | 27 | 144 | 4.8 | 11.3 | 0.00 | 0.00 | 0.00 | 72 | 1004.3 |
| 20260506001626 | 27 | 167 | 12.9 | 14.5 | 0.00 | 0.00 | 0.00 | 72 | 1004.3 |
| 20260505235626 | 28 | 174 | 3.2 | 14.5 | 0.00 | 0.00 | 0.00 | 72 | 1004.4 |
| 20260505234626 | 28 | 161 | 3.2 | 14.5 | 0.00 | 0.00 | 0.00 | 72 | 1004.2 |
| 20260505232626 | 28 | 133 | 12.9 | 22.5 | 0.00 | 0.00 | 0.00 | 70 | 1004.0 |
| 20260505231626 | 28 | 180 | 4.8 | 14.5 | 0.00 | 0.00 | 0.00 | 71 | 1003.7 |
| 20260505230626 | 28 | 161 | 8.0 | 19.3 | 0.00 | 0.00 | 0.00 | 71 | 1003.8 |
| 20260505225626 | 28 | 153 | 8.0 | 24.1 | 0.00 | 0.00 | 0.00 | 70 | 1003.7 |
| 20260505224626 | 28 | 182 | 6.4 | 20.9 | 0.00 | 0.00 | 0.00 | 70 | 1003.7 |
| 20260505223626 | 28 | 160 | 8.0 | 20.9 | 0.00 | 0.00 | 0.00 | 70 | 1003.8 |
| 20260505222626 | 28 | 163 | 11.3 | 19.3 | 0.00 | 0.00 | 0.00 | 70 | 1003.6 |
| 20260505221626 | 28 | 127 | 8.0 | 24.1 | 0.00 | 0.00 | 0.00 | 70 | 1003.6 |
| 20260505220626 | 28 | 209 | 9.7 | 22.5 | 0.00 | 0.00 | 0.00 | 68 | 1003.7 |
| 20260505214627 | 28 | 159 | 12.9 | 20.9 | 0.00 | 0.00 | 0.00 | 68 | 1004.2 |
| 20260505213626 | 28 | 143 | 12.9 | 22.5 | 0.00 | 0.00 | 0.00 | 68 | 1004.2 |
| 20260505212627 | 28 | 169 | 20.9 | 24.1 | 0.00 | 0.00 | 0.00 | 68 | 1004.2 |
| 20260505211627 | 28 | 169 | 27.4 | 30.6 | 0.00 | 0.00 | 0.00 | 68 | 1004.5 |
| 20260505210626 | 28 | 122 | 8.0 | 25.7 | 0.00 | 0.00 | 0.00 | 68 | 1004.5 |
| 20260505202627 | 28 | 177 | 16.1 | 27.4 | 0.00 | 0.00 | 0.00 | 69 | 1004.9 |
| 20260505201627 | 28 | 191 | 12.9 | 24.1 | 0.00 | 0.00 | 0.00 | 70 | 1005.1 |
| 20260505200626 | 27 | 196 | 14.5 | 29.0 | 0.00 | 0.00 | 0.00 | 71 | 1005.3 |
| 20260505195626 | 28 | 121 | 4.8 | 25.7 | 0.00 | 0.00 | 0.00 | 72 | 1005.3 |
| 20260505192626 | 27 | 175 | 16.1 | 22.5 | 0.00 | 0.00 | 0.00 | 71 | 1005.6 |
| 20260505191626 | 27 | 205 | 8.0 | 27.4 | 0.00 | 0.00 | 0.00 | 70 | 1006.0 |
| 20260505185626 | 27 | 188 | 12.9 | 25.7 | 0.00 | 0.00 | 0.00 | 72 | 1006.0 |
| 20260505183625 | 26 | 189 | 12.9 | 17.7 | 0.00 | 0.00 | 0.00 | 73 | 1006.4 |
| 20260505182626 | 27 | 173 | 11.3 | 17.7 | 0.00 | 0.00 | 0.00 | 73 | 1006.6 |
| 20260505181626 | 26 | 169 | 14.5 | 24.1 | 0.00 | 0.00 | 0.00 | 75 | 1006.6 |
| 20260505180627 | 25 | 203 | 11.3 | 20.9 | 0.00 | 0.00 | 0.00 | 75 | 1006.7 |
| 20260505175626 | 25 | 243 | 14.5 | 24.1 | 0.00 | 0.00 | 0.00 | 76 | 1006.9 |
| 20260505174626 | 25 | 180 | 8.0 | 27.4 | 0.00 | 0.00 | 0.00 | 76 | 1006.9 |
| 20260505173626 | 25 | 205 | 11.3 | 24.1 | 0.00 | 0.00 | 0.00 | 77 | 1007.0 |
| 20260505172626 | 25 | 210 | 11.3 | 19.3 | 0.00 | 0.00 | 0.00 | 78 | 1007.1 |
| 20260505171626 | 25 | 190 | 17.7 | 24.1 | 0.00 | 0.00 | 0.00 | 78 | 1006.9 |
| 20260505170625 | 24 | 228 | 12.9 | 24.1 | 0.00 | 0.00 | 0.00 | 79 | 1007.1 |
| 20260505164626 | 23 | 221 | 9.7 | 22.5 | 0.00 | 0.00 | 0.00 | 80 | 1007.2 |
| 20260505163626 | 23 | 211 | 9.7 | 19.3 | 0.00 | 0.00 | 0.00 | 81 | 1007.2 |
| 20260505162627 | 23 | 188 | 12.9 | 22.5 | 0.00 | 0.00 | 0.00 | 81 | 1007.2 |
| 20260505161627 | 23 | 247 | 14.5 | 17.7 | 0.00 | 0.00 | 0.00 | 81 | 1007.2 |
| 20260505160627 | 23 | 217 | 4.8 | 22.5 | 0.00 | 0.00 | 0.00 | 82 | 1007.2 |
| 20260505152626 | 23 | 186 | 9.7 | 19.3 | 0.00 | 0.00 | 0.00 | 82 | 1007.2 |
| 20260505151627 | 23 | 206 | 3.2 | 19.3 | 0.00 | 0.00 | 0.00 | 82 | 1007.1 |
| 20260505150626 | 23 | 242 | 12.9 | 30.6 | 0.00 | 0.00 | 0.00 | 82 | 1007.1 |
| 20260505124627 | 22 | 211 | 9.7 | 22.5 | 0.00 | 0.00 | 0.00 | 84 | 1006.0 |
| 20260505123627 | 22 | 192 | 12.9 | 20.9 | 0.00 | 0.00 | 0.00 | 84 | 1005.8 |
| 20260505122627 | 22 | 212 | 9.7 | 20.9 | 0.00 | 0.00 | 0.00 | 83 | 1005.7 |
| 20260505121627 | 22 | 187 | 17.7 | 19.3 | 0.00 | 0.00 | 0.00 | 83 | 1005.6 |
| 20260505114627 | 22 | 178 | 12.9 | 22.5 | 0.00 | 0.00 | 0.00 | 83 | 1005.4 |
| 20260505113627 | 21 | 161 | 8.0 | 17.7 | 0.00 | 0.00 | 0.00 | 83 | 1005.3 |
| 20260505112626 | 21 | 182 | 11.3 | 25.7 | 0.00 | 0.00 | 0.00 | 83 | 1005.4 |
| 20260505111626 | 21 | 150 | 12.9 | 24.1 | 0.00 | 0.00 | 0.00 | 83 | 1005.2 |
| 20260505110626 | 21 | 190 | 9.7 | 20.9 | 0.00 | 0.00 | 0.00 | 83 | 1005.4 |
| 20260505101625 | 21 | 215 | 8.0 | 16.1 | 0.00 | 0.00 | 0.00 | 82 | 1005.7 |
| 20260505100626 | 21 | 198 | 11.3 | 17.7 | 0.00 | 0.00 | 0.00 | 81 | 1005.8 |
| 20260505095626 | 21 | 196 | 16.1 | 20.9 | 0.00 | 0.00 | 0.00 | 81 | 1005.8 |
| 20260505094627 | 22 | 157 | 16.1 | 22.5 | 0.00 | 0.00 | 0.00 | 81 | 1005.6 |
| 20260505093627 | 22 | 190 | 12.9 | 20.9 | 0.00 | 0.00 | 0.00 | 81 | 1005.8 |
| 20260505092627 | 22 | 188 | 9.7 | 24.1 | 0.00 | 0.00 | 0.00 | 81 | 1005.8 |
| 20260505091627 | 22 | 179 | 20.9 | 22.5 | 0.00 | 0.00 | 0.00 | 81 | 1005.9 |
| 20260505085626 | 22 | 175 | 12.9 | 22.5 | 0.00 | 0.00 | 0.00 | 82 | 1005.8 |
| 20260505084627 | 22 | 203 | 9.7 | 30.6 | 0.00 | 0.00 | 0.00 | 82 | 1006.1 |
| 20260505083626 | 22 | 187 | 8.0 | 29.0 | 0.00 | 0.00 | 0.00 | 82 | 1006.0 |
| 20260505082625 | 22 | 182 | 11.3 | 32.2 | 0.00 | 0.00 | 0.00 | 82 | 1006.4 |
| 20260505081626 | 22 | 175 | 16.1 | 30.6 | 0.00 | 0.00 | 0.00 | 81 | 1006.4 |
| 20260505080626 | 22 | 181 | 14.5 | 30.6 | 0.00 | 0.00 | 0.00 | 82 | 1006.5 |
| 20260505075627 | 22 | 178 | 14.5 | 29.0 | 0.00 | 0.00 | 0.00 | 82 | 1006.3 |
| 20260505074626 | 22 | 194 | 20.9 | 29.0 | 0.00 | 0.00 | 0.00 | 82 | 1006.6 |
| 20260505073626 | 22 | 175 | 12.9 | 27.4 | 0.00 | 0.00 | 0.00 | 82 | 1006.5 |
| 20260505072627 | 22 | 158 | 9.7 | 33.8 | 0.00 | 0.00 | 0.00 | 81 | 1006.6 |
| 20260505071627 | 22 | 172 | 16.1 | 25.7 | 0.00 | 0.00 | 0.00 | 81 | 1007.0 |
| 20260505070626 | 22 | 194 | 16.1 | 29.0 | 0.00 | 0.00 | 0.00 | 81 | 1007.0 |
| 20260505065627 | 22 | 175 | 11.3 | 27.4 | 0.00 | 0.00 | 0.00 | 81 | 1007.2 |
| 20260505064627 | 22 | 143 | 14.5 | 27.4 | 0.00 | 0.00 | 0.00 | 81 | 1007.3 |
| 20260505063626 | 22 | 171 | 22.5 | 30.6 | 0.00 | 0.00 | 0.00 | 81 | 1007.3 |
| 20260505062626 | 22 | 187 | 14.5 | 27.4 | 0.00 | 0.00 | 0.00 | 81 | 1007.4 |
| 20260505061626 | 22 | 176 | 14.5 | 25.7 | 0.00 | 0.00 | 0.00 | 81 | 1007.6 |
| 20260505060626 | 22 | 175 | 19.3 | 33.8 | 0.00 | 0.00 | 0.00 | 81 | 1007.6 |
| 20260505055627 | 22 | 211 | 22.5 | 32.2 | 0.00 | 0.00 | 0.00 | 81 | 1007.5 |
| 20260505054627 | 22 | 175 | 12.9 | 25.7 | 0.00 | 0.00 | 0.00 | 81 | 1007.6 |
| 20260505052626 | 22 | 186 | 16.1 | 22.5 | 0.00 | 0.00 | 0.00 | 81 | 1007.5 |
| 20260505051627 | 22 | 185 | 9.7 | 25.7 | 0.00 | 0.00 | 0.00 | 81 | 1007.5 |
| 20260505041625 | 22 | 207 | 6.4 | 27.4 | 0.00 | 0.00 | 0.00 | 79 | 1007.5 |
| 20260505040625 | 22 | 135 | 8.0 | 24.1 | 0.00 | 0.00 | 0.00 | 78 | 1007.5 |
| 20260505035626 | 22 | 160 | 8.0 | 16.1 | 0.00 | 0.00 | 0.00 | 78 | 1007.6 |
| 20260505033627 | 23 | 159 | 11.3 | 20.9 | 0.00 | 0.00 | 0.00 | 77 | 1007.6 |
| 20260505032626 | 23 | 140 | 11.3 | 22.5 | 0.00 | 0.00 | 0.00 | 76 | 1007.5 |
| 20260505031625 | 23 | 170 | 8.0 | 19.3 | 0.00 | 0.00 | 0.00 | 76 | 1007.4 |
| 20260505030625 | 23 | 173 | 8.0 | 16.1 | 0.00 | 0.00 | 0.00 | 75 | 1007.5 |
| 20260505025626 | 23 | 166 | 8.0 | 24.1 | 0.00 | 0.00 | 0.00 | 74 | 1007.6 |
| 20260505024626 | 23 | 169 | 16.1 | 20.9 | 0.00 | 0.00 | 0.00 | 73 | 1007.4 |
| 20260505023629 | 24 | 184 | 6.4 | 17.7 | 0.00 | 0.00 | 0.00 | 72 | 1007.4 |
| 20260505021625 | 24 | 193 | 6.4 | 20.9 | 0.00 | 0.00 | 0.00 | 71 | 1007.3 |